EW2485 Weather Reports


Display with metric or nautical units.
time (UTC)temp
F
wind
direction
speed
MPH
gust
MPH
rain 1hr
in
rain 24hr
in
rain mn
in
humidity
%
barometer
mb
20260505214619 66 209 5.0 15.0 0.00 0.13 0.13 77 1005.1
20260505213022 66 178 4.0 12.0 0.00 0.13 0.13 79 1005.0
20260505211538 65 151 4.0 13.0 0.00 0.13 0.13 80 1004.7
20260505210056 64 314 5.0 10.0 0.00 0.13 0.13 81 1004.9
20260505204520 63 193 4.0 9.0 0.02 0.13 0.13 83 1004.8
20260505203053 62 178 4.0 8.0 0.05 0.13 0.13 82 1005.0
20260505201534 61 188 3.0 5.0 0.10 0.13 0.13 83 1005.6
20260505200006 60 187 4.0 9.0 0.10 0.12 0.12 83 1005.9
20260505194536 60 178 4.0 11.0 0.09 0.11 0.11 82 1006.4
20260505193054 62 183 6.0 13.0 0.06 0.08 0.08 80 1006.3
20260505191508 64 216 3.0 7.0 0.00 0.02 0.02 77 1005.9
20260505190036 66 290 5.0 16.0 0.00 0.02 0.02 73 1005.6
20260505184552 70 264 6.0 18.0 0.00 0.02 0.02 64 1004.5
20260505183008 73 213 7.0 33.0 0.00 0.02 0.02 54 1004.0
20260505181532 74 169 9.0 21.0 0.00 0.02 0.02 52 1003.9
20260505180059 75 154 9.0 22.0 0.00 0.02 0.02 52 1004.0
20260505174555 74 165 4.0 21.0 0.00 0.02 0.02 55 1004.4
20260505173026 72 216 7.0 16.0 0.00 0.02 0.02 55 1004.8
20260505171551 72 181 8.0 20.0 0.00 0.02 0.02 55 1004.8
20260505170020 73 218 9.0 26.0 0.00 0.02 0.02 53 1004.8
20260505164538 74 194 13.0 23.0 0.00 0.02 0.02 52 1004.7
20260505163057 74 243 14.0 27.0 0.00 0.02 0.02 53 1004.4
20260505161525 74 183 12.0 28.0 0.00 0.02 0.02 53 1004.5
20260505153029 75 230 17.0 31.0 0.00 0.02 0.02 53 1005.0
20260505151600 75 227 19.0 36.0 0.00 0.02 0.02 53 1004.9
20260505124553 64 207 11.0 21.0 0.00 0.02 0.02 71 1005.7
20260505123027 62 174 9.0 16.0 0.00 0.02 0.02 75 1005.9
20260505121540 59 191 4.0 14.0 0.00 0.02 0.02 78 1005.9
20260505120057 58 143 6.0 13.0 0.00 0.02 0.02 79 1006.1
20260505114517 57 189 4.0 13.0 0.00 0.02 0.02 80 1006.1
20260505113039 56 204 4.0 10.0 0.00 0.02 0.02 82 1005.9
20260505111603 55 157 2.0 6.0 0.00 0.02 0.02 83 1005.9
20260505101511 56 163 5.0 14.0 0.02 0.02 0.02 79 1005.7
20260505100044 56 162 4.0 8.0 0.00 0.00 0.00 74 1006.0
20260505094533 56 213 3.0 8.0 0.00 0.00 0.00 73 1005.8
20260505093056 56 137 4.0 7.0 0.00 0.00 0.00 72 1005.6
20260505091507 56 178 2.0 9.0 0.00 0.00 0.00 71 1005.6
20260505090034 57 171 2.0 10.0 0.00 0.00 0.00 71 1005.4
20260505084559 57 174 4.0 9.0 0.00 0.00 0.00 71 1005.3
20260505083025 57 135 2.0 6.0 0.00 0.00 0.00 70 1005.3
20260505081543 58 189 6.0 12.0 0.00 0.00 0.00 70 1005.2
20260505080103 58 189 5.0 9.0 0.00 0.00 0.00 70 1005.3
20260505074518 57 186 3.0 9.0 0.00 0.00 0.00 70 1005.2
20260505073006 57 156 2.0 6.0 0.00 0.00 0.00 70 1005.3
20260505071559 58 135 4.0 6.0 0.00 0.00 0.00 69 1005.2
20260505070028 58 172 5.0 11.0 0.00 0.00 0.00 69 1005.4
20260505064543 58 174 3.0 9.0 0.00 0.00 0.00 68 1005.5
20260505063102 58 162 5.0 10.0 0.00 0.00 0.00 69 1005.6
20260505061525 58 163 4.0 7.0 0.00 0.00 0.00 67 1005.5
20260505060050 59 187 4.0 11.0 0.00 0.00 0.00 66 1005.6
20260505054602 60 186 4.0 12.0 0.00 0.00 0.00 65 1005.5
20260505053026 60 195 5.0 11.0 0.00 0.00 0.00 64 1005.8
20260505051558 60 217 4.0 10.0 0.00 0.00 0.00 64 1005.8
20260505041547 59 217 3.0 7.0 0.00 0.00 0.00 64 1006.0
20260505040012 59 150 2.0 7.0 0.00 0.00 0.00 63 1005.8
20260505034529 59 163 2.0 6.0 0.00 0.00 0.00 63 1005.8
20260505033049 59 152 2.0 5.0 0.00 0.00 0.00 62 1005.8
20260505031525 60 152 2.0 7.0 0.00 0.00 0.00 61 1005.8
20260505030006 60 234 2.0 6.0 0.00 0.00 0.00 61 1005.7
20260505024557 61 269 2.0 5.0 0.00 0.00 0.00 60 1005.9
20260505023022 61 178 4.0 9.0 0.00 0.00 0.00 59 1005.8
20260505021535 61 182 3.0 7.0 0.00 0.00 0.00 58 1005.9
20260505020053 62 211 3.0 13.0 0.00 0.00 0.00 57 1005.9
20260505014514 63 195 5.0 15.0 0.00 0.00 0.00 56 1005.8
20260505013053 62 203 7.0 15.0 0.00 0.00 0.00 56 1005.6
20260505011558 63 170 5.0 12.0 0.00 0.00 0.00 55 1005.6
20260505010009 64 202 5.0 13.0 0.00 0.00 0.00 54 1005.5
20260505004535 64 190 6.0 14.0 0.00 0.00 0.00 52 1005.5
20260505003103 65 159 5.0 12.0 0.00 0.00 0.00 49 1005.3
20260505001541 65 193 6.0 12.0 0.00 0.00 0.00 48 1005.1
20260505000029 66 213 3.0 7.0 0.00 0.00 0.00 47 1004.9
20260504234505 68 168 6.0 12.0 0.00 0.00 0.00 45 1004.9
20260504233036 69 213 5.0 16.0 0.00 0.00 0.00 44 1004.8
20260504231553 70 167 6.0 17.0 0.00 0.00 0.00 43 1004.7
20260504230017 71 165 9.0 20.0 0.00 0.00 0.00 41 1004.7
20260504224543 73 212 7.0 15.0 0.00 0.00 0.00 35 1004.7
20260504223105 73 202 5.0 13.0 0.00 0.00 0.00 36 1004.9
20260504221525 74 218 6.0 14.0 0.00 0.00 0.00 35 1004.8
20260504220045 74 234 12.0 20.0 0.00 0.00 0.00 34 1004.9